sat.trackr.live / text

‹ back to catalog

FLOCK 4H-33

NORAD 66736 · 2025-276BY

PAYLOAD ACTIVE UNKNOWN

§ Identity

Operator
Country
US
Launch date
2025-11-28
Launch site
AFWTR
Launch vehicle
Mass (kg)
RCS (m²)

Purposes: earth_obs

External: N2YO · Heavens-Above · Gunter

§ Orbital elements

Epoch: 2026-05-25T02:38:45.068640Z

Period
94.70 min
Inclination
97.4226°
Eccentricity
0.0002915
Mean motion
15.20617933 rev/d
Perigee alt
502.0 km
Apogee alt
506.0 km
Semi-major
6,882.1 km
B*
2.1625e-4
RAAN
219.3514°
Arg perigee
50.6637°
Mean anomaly
309.4857°
Rev number
2,693

§ Raw data

FLOCK 4H-331 66736U 25276BY  26145.11024385  .00004674  00000+0  21625-3 0  99912 66736  97.4226 219.3514 0002915  50.6637 309.4857 15.20617933 26932

JSON: /api/v1/satellites/66736 · /tle

For live sub-satellite position, see the globe view (requires WebGL).

§ Visibility from observer

Set your observer location to see the next 7 days of passes ≥ 10°. The values pass through the URL so the page stays shareable.

No JS? Fill the form by hand. The geolocation button needs JavaScript.